Location: Ayer Observatory
(42.2600°N, 71.0700°W)
Time: 14:50:40
(UTC-04:00)

FO-29 - Visible Passes

Search period start: 23 August 2019 00:00
Search period end: 02 September 2019 00:00
Orbit: 799 x 1322 km, 98.5° (Epoch: 22 August)

Date Brightness Start Highest point End Pass type
(mag) Time Alt. Az. Time Alt. Az. Time Alt. Az.
23 Aug 9.6 03:04:21 40° SE 03:06:04 60° ENE 03:11:11 10° N visible
23 Aug 10.6 04:50:51 16° WSW 04:51:34 16° W 04:54:51 10° NW visible
24 Aug 11.3 02:08:45 15° E 02:11:17 21° ENE 02:15:05 10° NNE visible
24 Aug 9.3 03:55:15 45° SW 03:56:06 50° W 04:01:10 10° NNW visible
25 Aug 9.7 02:59:38 43° ESE 03:00:59 54° ENE 03:06:02 10° N visible
25 Aug 10.5 04:46:07 18° W 04:46:27 18° W 04:49:56 10° NW visible
26 Aug 11.4 02:04:01 15° E 02:06:15 19° ENE 02:09:50 10° NNE visible
26 Aug 9.2 03:50:30 52° WSW 03:51:00 54° W 03:56:06 10° NNW visible
27 Aug 9.8 02:54:54 44° ESE 02:55:54 50° ENE 03:00:54 10° N visible
27 Aug 10.5 04:41:23 19° W 04:41:23 19° W 04:45:00 10° NW visible
28 Aug 11.4 01:59:16 15° E 02:01:12 18° ENE 02:04:34 10° NNE visible
28 Aug 9.1 03:45:45 58° WSW 03:45:53 59° W 03:51:01 10° NNW visible
29 Aug 9.9 02:50:07 43° E 02:50:49 46° ENE 02:55:45 10° N visible
29 Aug 10.4 04:36:36 20° W 04:36:36 20° W 04:40:04 10° NW visible
30 Aug 11.5 01:54:29 14° E 01:56:10 16° ENE 01:59:18 10° NNE visible
30 Aug 9.0 03:40:58 63° W 03:40:58 63° W 03:45:57 10° NNW visible
31 Aug 10.1 02:45:19 41° E 02:45:44 42° ENE 02:50:37 10° N visible
31 Aug 10.4 04:31:49 22° W 04:31:49 22° W 04:35:07 10° NW visible
01 Sep 11.6 01:49:41 13° ENE 01:51:09 15° ENE 01:54:01 10° NNE visible
01 Sep 9.1 03:36:09 65° WNW 03:36:09 65° WNW 03:40:53 10° NNW visible
